Date String (YYYY-MM-DD hh:mm:ss) UTC,Instrument flags,Ambient pressure (hPa),Sample flow (lpm),Bypass flow (lpm),Sample temperature (°C),Ambient temperature (°C),ASC tube jacket temperature (°C),LED temperature (°C),Box temperature (°C),Sample RH (%),Span deviation,Mass concentration (μg/m³),Mass concentration (μg/m³),Mass concentration (μg/m³)
DateTimeUTC,F1_M11,P_M11,Q1_M11,Q2_M11,T1_M11,T2_M11,T3_M11,T4_M11,T5_M11,U1_M11,ZSPAN_M11,X2_M11,X0_M11,X1_M11
2022-07-15 04:00:00,,0832.0,5.00,0.00,29.5,28.5,00.0,38.2,31.5,25.7,0000.0,0003.35,0006.74,0003.00
2022-07-15 04:01:00,,0832.0,5.00,0.00,29.5,28.5,00.0,38.2,31.5,25.8,0000.0,0003.30,0006.61,0002.94
2022-07-15 04:02:00,,0832.0,5.01,0.00,29.5,27.9,00.0,38.1,31.4,25.7,0000.0,0003.26,0006.23,0002.88
2022-07-15 04:03:00,,0832.0,5.00,0.00,29.5,27.1,00.0,38.1,31.3,25.8,0000.0,0003.21,0005.34,0002.83
2022-07-15 04:04:00,,0831.9,5.00,0.00,29.4,26.9,00.0,38.1,31.2,25.9,0000.0,0003.18,0004.64,0002.80
2022-07-15 04:05:00,,0832.0,5.00,0.00,29.3,26.9,00.0,38.0,31.1,26.1,0000.0,0003.14,0005.02,0002.77
2022-07-15 04:06:00,,0831.9,5.00,0.00,29.3,27.1,00.0,38.0,31.0,26.2,0000.0,0003.15,0005.56,0002.75
2022-07-15 04:07:00,,0831.9,5.00,0.00,29.3,27.3,00.0,38.0,31.1,26.2,0000.0,0003.13,0005.59,0002.74
2022-07-15 04:08:00,,0832.0,5.00,0.00,29.3,27.4,00.0,38.0,31.1,26.2,0000.0,0003.14,0005.70,0002.73
2022-07-15 04:09:00,,0831.9,4.99,0.00,29.3,27.6,00.0,38.0,31.2,26.1,0000.0,0003.16,0006.00,0002.72
2022-07-15 04:10:00,,0832.0,5.00,0.00,29.3,27.8,00.0,38.0,31.2,25.9,0000.0,0003.17,0005.99,0002.71
2022-07-15 04:11:00,,0832.0,5.01,0.00,29.3,27.9,00.0,38.1,31.3,25.6,0000.0,0003.15,0006.41,0002.70
2022-07-15 04:12:00,,0832.0,4.99,0.00,29.4,28.1,00.0,38.1,31.3,25.5,0000.0,0003.14,0006.87,0002.68
2022-07-15 04:13:00,,0832.0,5.00,0.00,29.4,28.2,00.0,38.1,31.3,25.7,0000.0,0003.14,0006.80,0002.66
2022-07-15 04:14:00,,0832.0,5.00,0.00,29.4,28.3,00.0,38.1,31.4,25.7,0000.0,0003.14,0006.71,0002.65
2022-07-15 04:15:00,,0832.0,5.02,0.00,29.5,28.4,00.0,38.1,31.4,25.5,0000.0,0003.12,0006.49,0002.63
2022-07-15 04:16:00,,0832.0,5.00,0.00,29.5,28.5,00.0,38.2,31.5,26.1,0000.0,0003.11,0005.90,0002.62
2022-07-15 04:17:00,,0832.0,5.00,0.00,29.5,28.5,00.0,38.2,31.5,26.8,0000.0,0003.06,0005.33,0002.60
2022-07-15 04:18:00,,0832.0,4.99,0.00,29.5,27.9,00.0,38.1,31.4,26.9,0000.0,0003.05,0005.26,0002.58
2022-07-15 04:19:00,,0831.9,5.00,0.00,29.5,27.2,00.0,38.1,31.3,27.1,0000.0,0003.05,0005.23,0002.56
2022-07-15 04:20:00,,0832.0,5.01,0.00,29.4,26.9,00.0,38.1,31.2,27.4,0000.0,0003.03,0004.94,0002.56
2022-07-15 04:21:00,,0832.0,5.00,0.00,29.3,26.9,00.0,38.0,31.1,27.7,0000.0,0003.01,0004.89,0002.55
2022-07-15 04:22:00,,0832.0,5.00,0.00,29.3,27.1,00.0,38.0,31.1,27.8,0000.0,0003.02,0004.53,0002.53
2022-07-15 04:23:00,,0832.0,4.98,0.00,29.3,27.2,00.0,38.0,31.1,27.6,0000.0,0003.00,0003.97,0002.51
2022-07-15 04:24:00,,0832.0,5.01,0.00,29.3,27.4,00.0,38.0,31.1,27.5,0000.0,0002.96,0003.96,0002.48
2022-07-15 04:25:00,,0832.0,5.01,0.00,29.3,27.6,00.0,38.0,31.2,27.6,0000.0,0002.93,0004.03,0002.46
2022-07-15 04:26:00,,0831.9,5.00,0.00,29.3,27.8,00.0,38.0,31.2,27.4,0000.0,0002.95,0004.81,0002.45
2022-07-15 04:27:00,,0832.0,5.00,0.00,29.3,27.9,00.0,38.1,31.3,27.3,0000.0,0002.95,0004.84,0002.43
2022-07-15 04:28:00,,0831.9,5.00,0.00,29.3,28.0,00.0,38.1,31.3,27.3,0000.0,0002.94,0004.81,0002.41
2022-07-15 04:29:00,,0831.8,5.00,0.00,29.4,28.2,00.0,38.1,31.3,27.1,0000.0,0002.92,0004.77,0002.39
2022-07-15 04:30:00,,0831.8,5.00,0.00,29.4,28.3,00.0,38.1,31.4,26.3,0000.0,0002.85,0004.67,0002.37
2022-07-15 04:31:00,,0831.7,5.00,0.00,29.4,28.4,00.0,38.1,31.4,26.1,0000.0,0002.76,0004.68,0002.31
2022-07-15 04:32:00,,0831.7,5.00,0.00,29.5,28.5,00.0,38.2,31.4,25.2,0000.0,0002.70,0004.58,0002.27
2022-07-15 04:33:00,,0831.7,5.01,0.00,29.5,28.5,00.0,38.2,31.5,24.8,0000.0,0002.63,0004.38,0002.25
2022-07-15 04:34:00,,0831.7,5.00,0.00,29.5,28.3,00.0,38.2,31.5,24.5,0000.0,0002.60,0004.38,0002.22
2022-07-15 04:35:00,,0831.7,4.99,0.00,29.5,27.7,00.0,38.1,31.4,25.2,0000.0,0002.58,0004.29,0002.21
2022-07-15 04:36:00,,0831.7,5.00,0.00,29.5,27.5,00.0,38.1,31.3,24.9,0000.0,0002.57,0004.22,0002.19
2022-07-15 04:37:00,,0831.7,5.00,0.00,29.4,27.5,00.0,38.1,31.2,24.4,0000.0,0002.56,0003.50,0002.17
2022-07-15 04:38:00,,0831.7,4.99,0.00,29.4,27.6,00.0,38.1,31.2,24.7,0000.0,0002.54,0003.53,0002.14
2022-07-15 04:39:00,,0831.7,5.01,0.00,29.4,27.7,00.0,38.1,31.3,24.3,0000.0,0002.51,0003.54,0002.12
2022-07-15 04:40:00,,0831.7,5.00,0.00,29.4,27.8,00.0,38.1,31.3,24.6,0000.0,0002.52,0003.61,0002.10
2022-07-15 04:41:00,,0831.7,4.99,0.00,29.4,28.0,00.0,38.1,31.3,24.4,0000.0,0002.52,0003.57,0002.09
2022-07-15 04:42:00,,0831.7,5.00,0.00,29.4,28.1,00.0,38.2,31.4,24.5,0000.0,0002.53,0003.48,0002.09
2022-07-15 04:43:00,,0831.8,5.00,0.00,29.5,28.2,00.0,38.2,31.4,24.3,0000.0,0002.53,0003.48,0002.09
2022-07-15 04:44:00,,0831.7,5.00,0.00,29.5,28.3,00.0,38.2,31.4,24.3,0000.0,0002.53,0003.48,0002.08
2022-07-15 04:45:00,,0831.7,5.00,0.00,29.5,28.4,00.0,38.2,31.5,24.3,0000.0,0002.54,0003.48,0002.08
2022-07-15 04:46:00,,0831.7,5.00,0.00,29.6,28.5,00.0,38.2,31.5,24.3,0000.0,0002.55,0003.52,0002.08
2022-07-15 04:47:00,,0831.7,5.00,0.00,29.6,28.5,00.0,38.2,31.5,24.3,0000.0,0002.53,0003.50,0002.07
2022-07-15 04:48:00,,0831.7,5.01,0.00,29.6,27.9,00.0,38.2,31.5,24.5,0000.0,0002.55,0003.60,0002.07
2022-07-15 04:49:00,,0831.7,5.00,0.00,29.5,27.5,00.0,38.2,31.4,24.6,0000.0,0002.56,0003.72,0002.08
2022-07-15 04:50:00,,0831.7,4.99,0.00,29.5,27.5,00.0,38.2,31.3,24.8,0000.0,0002.54,0003.97,0002.08
2022-07-15 04:51:00,,0831.7,4.99,0.00,29.4,27.6,00.0,38.2,31.3,24.8,0000.0,0002.48,0003.96,0002.07
2022-07-15 04:52:00,,0831.7,5.01,0.00,29.4,27.7,00.0,38.2,31.3,24.8,0000.0,0002.48,0004.05,0002.06
2022-07-15 04:53:00,,0831.7,5.00,0.00,29.4,27.8,00.0,38.2,31.3,25.1,0000.0,0002.45,0003.99,0002.06
2022-07-15 04:54:00,,0831.7,5.00,0.00,29.5,28.0,00.0,38.2,31.4,25.3,0000.0,0002.43,0003.96,0002.05
2022-07-15 04:55:00,,0831.7,5.00,0.00,29.5,28.1,00.0,38.2,31.4,25.2,0000.0,0002.43,0004.03,0002.05
2022-07-15 04:56:00,,0831.7,4.99,0.00,29.5,28.2,00.0,38.2,31.4,24.7,0000.0,0002.45,0004.11,0002.06
2022-07-15 04:57:00,,0831.7,4.99,0.00,29.5,28.3,00.0,38.2,31.5,24.9,0000.0,0002.43,0004.07,0002.07
2022-07-15 04:58:00,,0831.7,5.01,0.00,29.6,28.4,00.0,38.3,31.5,24.8,0000.0,0002.45,0004.06,0002.09
2022-07-15 04:59:00,,0831.6,5.00,0.00,29.6,28.5,00.0,38.3,31.6,24.5,0000.0,0002.40,0003.87,0002.09
